Weather History for KAOH - March, 2014

Change the Weather History Date:

Monday, March 31, 2014

  Actual Average (KFDY) Record (KFDY)
Temperature  
Mean Temperature 48 °F -  
Max Temperature 63 °F 53 °F 80 °F (1986)
Min Temperature 33 °F 34 °F 15 °F (1969)
Degree Days  
Heating Degree Days 18    
Moisture  
Dew Point 30 °F    
Average Humidity 53    
Maximum Humidity 75    
Minimum Humidity 32    
Precipitation  
Precipitation 0.00 in - - ()
Sea Level Pressure  
Sea Level Pressure 30.12 in    
Wind  
Wind Speed 7 mph (SSE)    
Max Wind Speed 18 mph    
Max Gust Speed 26 mph    
Visibility 10 miles    
Events      
Averages and records for this station are not official NWS values.
T = Trace of Precipitation, MM = Missing Value Source: NWS Daily Summary

Daily Weather History Graph

Daily Weather History Graph

Search for Another Location

Airport or City:

Trip Planner

Search our weather history database for the weather conditions in past years. The results will help you decide how hot, cold, wet, or windy it might be!

Date:

Astronomy

Mar. 31, 2014 Rise Set
Actual Time 7:21 AM EDT 7:59 PM EDT
Civil Twilight 6:53 AM EDT 8:27 PM EDT
Nautical Twilight 6:21 AM EDT 9:00 PM EDT
Astronomical Twilight 5:47 AM EDT 9:33 PM EDT
Moon 7:43 AM EDT (3/31) 9:18 PM EDT (3/31)
Length of Visible Light 13h 33m
Length of Day
12h 38m
New Moon, 1% of the Moon is Illuminated
Mar 31
New Moon
Apr 7
First Quarter
Apr 15
Full
Apr 22
Last Quarter
Apr 29
New

Hourly Weather History & Observations

Time (EDT) Temp. Windchill Dew Point Humidity Pressure Visibility Wind Dir Wind Speed Gust Speed Precip Events Conditions
12:53 AM 34.0 °F - 27.0 °F 75% 30.17 in 10.0 mi Calm Calm - N/A   Clear
1:53 AM 35.1 °F 31.0 °F 27.0 °F 72% 30.17 in 10.0 mi SSW 4.6 mph - N/A   Clear
2:53 AM 35.1 °F 29.3 °F 27.0 °F 72% 30.17 in 10.0 mi South 6.9 mph - N/A   Clear
3:53 AM 33.1 °F - 26.1 °F 75% 30.16 in 10.0 mi Calm Calm - N/A   Clear
4:53 AM 33.1 °F 30.0 °F 26.1 °F 75% 30.16 in 10.0 mi WSW 3.5 mph - N/A   Clear
5:53 AM 33.1 °F 30.0 °F 26.1 °F 75% 30.17 in 10.0 mi SSE 3.5 mph - N/A   Clear
6:53 AM 34.0 °F 29.8 °F 26.1 °F 73% 30.17 in 10.0 mi South 4.6 mph - N/A   Clear
7:53 AM 35.1 °F 28.6 °F 27.0 °F 72% 30.19 in 10.0 mi South 8.1 mph - N/A   Clear
8:53 AM 39.9 °F 35.8 °F 30.0 °F 68% 30.21 in 10.0 mi SSE 5.8 mph - N/A   Clear
9:53 AM 45.0 °F 40.6 °F 32.0 °F 60% 30.21 in 10.0 mi South 8.1 mph - N/A   Clear
10:53 AM 51.1 °F - 34.0 °F 52% 30.21 in 10.0 mi SSE 5.8 mph - N/A   Clear
11:53 AM 55.0 °F - 33.1 °F 43% 30.19 in 10.0 mi SSE 10.4 mph 17.3 mph N/A   Clear
12:53 PM 57.9 °F - 33.1 °F 39% 30.17 in 10.0 mi SSE 15.0 mph - N/A   Clear
1:53 PM 60.1 °F - 30.9 °F 33% 30.16 in 10.0 mi SSE 12.7 mph - N/A   Clear
2:53 PM 62.1 °F - 32.0 °F 32% 30.14 in 10.0 mi SSE 15.0 mph - N/A   Clear
3:53 PM 61.0 °F - 32.0 °F 34% 30.12 in 10.0 mi South 10.4 mph - N/A   Clear
4:53 PM 62.1 °F - 33.1 °F 34% 30.09 in 10.0 mi South 16.1 mph - N/A   Clear
5:53 PM 61.0 °F - 34.0 °F 36% 30.07 in 10.0 mi SSE 13.8 mph - N/A   Clear
6:53 PM 60.1 °F - 32.0 °F 35% 30.05 in 10.0 mi SE 16.1 mph - N/A   Clear
7:53 PM 55.0 °F - 34.0 °F 45% 30.04 in 10.0 mi SE 10.4 mph - N/A   Clear
8:53 PM 54.0 °F - 34.0 °F 47% 30.03 in 10.0 mi SE 12.7 mph - N/A   Clear
9:53 PM 54.0 °F - 30.9 °F 41% 30.01 in 10.0 mi SE 12.7 mph - N/A   Clear
10:53 PM 54.0 °F - 32.0 °F 43% 29.99 in 10.0 mi SSE 13.8 mph - N/A   Clear
11:53 PM 55.9 °F - 30.0 °F 37% 29.94 in 10.0 mi SE 18.4 mph 26.5 mph N/A   Scattered Clouds